Location: *
(49.3500°N, 12.6000°E)
Time: 04:31:17
(UTC+00:00)

STARLINK-42 - Pass Details

Date: 18 October 2019
Orbit: 548 x 551 km, 53.0° (Epoch: 15 November)

Event Time Altitude Azimuth Distance (km) Brightness Sun altitude
Rises 16:39:19 0° 246° (WSW) 2,710 9.1 -4.8°
Reaches altitude 10° 16:41:33 10° 247° (WSW) 1,819 7.9 -5.2°
Maximum altitude 16:45:41 87° 336° (NNW) 555 3.7 -5.9°
Drops below altitude 10° 16:49:51 10° 67° (ENE) 1,827 5.7 -6.5°
Enters shadow 16:50:22 - 67° (ENE) 2,031 5.9 -6.6°
